#	Date Time	Temp C
4	6/27/2014 15:13	13.846
5	6/27/2014 15:28	13.846
6	6/27/2014 15:43	13.846
7	6/27/2014 15:58	13.75
8	6/27/2014 16:13	13.846
9	6/27/2014 16:28	13.846
10	6/27/2014 16:43	13.75
11	6/27/2014 16:58	13.558
12	6/27/2014 17:13	13.654
13	6/27/2014 17:28	13.75
14	6/27/2014 17:43	13.75
15	6/27/2014 17:58	13.75
16	6/27/2014 18:13	13.75
17	6/27/2014 18:28	13.75
18	6/27/2014 18:43	13.654
19	6/27/2014 18:58	13.654
20	6/27/2014 19:13	13.654
21	6/27/2014 19:28	13.558
22	6/27/2014 19:43	13.365
23	6/27/2014 19:58	13.269
24	6/27/2014 20:13	13.269
25	6/27/2014 20:28	13.076
26	6/27/2014 20:43	12.98
27	6/27/2014 20:58	13.076
28	6/27/2014 21:13	13.173
29	6/27/2014 21:28	12.883
30	6/27/2014 21:43	12.883
31	6/27/2014 21:58	13.076
32	6/27/2014 22:13	13.365
33	6/27/2014 22:28	13.173
34	6/27/2014 22:43	13.076
35	6/27/2014 22:58	13.173
36	6/27/2014 23:13	13.173
37	6/27/2014 23:28	13.076
38	6/27/2014 23:43	12.883
39	6/27/2014 23:58	12.883
40	6/28/2014 0:13	12.883
41	6/28/2014 0:28	12.883
42	6/28/2014 0:43	12.787
43	6/28/2014 0:58	12.787
44	6/28/2014 1:13	12.883
45	6/28/2014 1:28	12.883
46	6/28/2014 1:43	12.883
47	6/28/2014 1:58	12.787
48	6/28/2014 2:13	12.787
49	6/28/2014 2:28	12.787
50	6/28/2014 2:43	12.787
51	6/28/2014 2:58	12.69
52	6/28/2014 3:13	12.69
53	6/28/2014 3:28	12.69
54	6/28/2014 3:43	12.594
55	6/28/2014 3:58	12.594
56	6/28/2014 4:13	12.594
57	6/28/2014 4:28	12.594
58	6/28/2014 4:43	12.594
59	6/28/2014 4:58	12.594
60	6/28/2014 5:13	12.594
61	6/28/2014 5:28	12.69
62	6/28/2014 5:43	12.69
63	6/28/2014 5:58	12.594
64	6/28/2014 6:13	12.594
65	6/28/2014 6:28	12.497
66	6/28/2014 6:43	12.497
67	6/28/2014 6:58	12.401
68	6/28/2014 7:13	12.304
69	6/28/2014 7:28	12.401
70	6/28/2014 7:43	12.401
71	6/28/2014 7:58	12.401
72	6/28/2014 8:13	12.401
73	6/28/2014 8:28	12.401
74	6/28/2014 8:43	12.401
75	6/28/2014 8:58	12.401
76	6/28/2014 9:13	12.497
77	6/28/2014 9:28	12.497
78	6/28/2014 9:43	12.594
79	6/28/2014 9:58	12.69
80	6/28/2014 10:13	12.69
81	6/28/2014 10:28	12.594
82	6/28/2014 10:43	12.69
83	6/28/2014 10:58	12.594
84	6/28/2014 11:13	12.497
85	6/28/2014 11:28	12.497
86	6/28/2014 11:43	12.497
87	6/28/2014 11:58	12.497
88	6/28/2014 12:13	12.594
89	6/28/2014 12:28	12.594
90	6/28/2014 12:43	12.594
91	6/28/2014 12:58	12.497
92	6/28/2014 13:13	12.497
93	6/28/2014 13:28	12.497
94	6/28/2014 13:43	12.594
95	6/28/2014 13:58	12.594
96	6/28/2014 14:13	12.594
97	6/28/2014 14:28	12.69
98	6/28/2014 14:43	12.787
99	6/28/2014 14:58	12.787
100	6/28/2014 15:13	12.787
101	6/28/2014 15:28	12.883
102	6/28/2014 15:43	12.883
103	6/28/2014 15:58	12.98
104	6/28/2014 16:13	12.98
105	6/28/2014 16:28	12.98
106	6/28/2014 16:43	12.883
107	6/28/2014 16:58	12.883
108	6/28/2014 17:13	12.883
109	6/28/2014 17:28	12.883
110	6/28/2014 17:43	12.787
111	6/28/2014 17:58	12.883
112	6/28/2014 18:13	12.787
113	6/28/2014 18:28	12.787
114	6/28/2014 18:43	12.883
115	6/28/2014 18:58	12.883
116	6/28/2014 19:13	12.883
117	6/28/2014 19:28	12.98
118	6/28/2014 19:43	12.98
119	6/28/2014 19:58	12.883
120	6/28/2014 20:13	12.594
121	6/28/2014 20:28	12.497
122	6/28/2014 20:43	12.497
123	6/28/2014 20:58	12.497
124	6/28/2014 21:13	12.594
125	6/28/2014 21:28	12.497
126	6/28/2014 21:43	12.304
127	6/28/2014 21:58	12.304
128	6/28/2014 22:13	12.401
129	6/28/2014 22:28	12.401
130	6/28/2014 22:43	12.304
131	6/28/2014 22:58	12.304
132	6/28/2014 23:13	12.304
133	6/28/2014 23:28	12.401
134	6/28/2014 23:43	12.304
135	6/28/2014 23:58	12.304
136	6/29/2014 0:13	12.207
137	6/29/2014 0:28	12.207
138	6/29/2014 0:43	12.207
139	6/29/2014 0:58	12.207
140	6/29/2014 1:13	12.207
141	6/29/2014 1:28	12.207
142	6/29/2014 1:43	12.207
143	6/29/2014 1:58	12.207
144	6/29/2014 2:13	12.11
145	6/29/2014 2:28	12.11
146	6/29/2014 2:43	12.11
147	6/29/2014 2:58	12.11
148	6/29/2014 3:13	12.11
149	6/29/2014 3:28	12.207
150	6/29/2014 3:43	12.207
151	6/29/2014 3:58	12.11
152	6/29/2014 4:13	12.11
153	6/29/2014 4:28	12.11
154	6/29/2014 4:43	12.11
155	6/29/2014 4:58	12.11
156	6/29/2014 5:13	12.013
157	6/29/2014 5:28	12.11
158	6/29/2014 5:43	12.11
159	6/29/2014 5:58	12.11
160	6/29/2014 6:13	12.11
161	6/29/2014 6:28	12.013
162	6/29/2014 6:43	12.11
163	6/29/2014 6:58	12.11
164	6/29/2014 7:13	12.11
165	6/29/2014 7:28	12.11
166	6/29/2014 7:43	12.013
167	6/29/2014 7:58	12.013
168	6/29/2014 8:13	12.013
169	6/29/2014 8:28	12.013
170	6/29/2014 8:43	12.013
171	6/29/2014 8:58	12.11
172	6/29/2014 9:13	12.11
173	6/29/2014 9:28	12.207
174	6/29/2014 9:43	12.207
175	6/29/2014 9:58	12.304
176	6/29/2014 10:13	12.401
177	6/29/2014 10:28	12.497
178	6/29/2014 10:43	12.497
179	6/29/2014 10:58	12.497
180	6/29/2014 11:13	12.497
181	6/29/2014 11:28	12.401
182	6/29/2014 11:43	12.401
183	6/29/2014 11:58	12.304
184	6/29/2014 12:13	12.304
185	6/29/2014 12:28	12.304
186	6/29/2014 12:43	12.304
187	6/29/2014 12:58	12.401
188	6/29/2014 13:13	12.401
189	6/29/2014 13:28	12.401
190	6/29/2014 13:43	12.401
191	6/29/2014 13:58	12.401
192	6/29/2014 14:13	12.304
193	6/29/2014 14:28	12.304
194	6/29/2014 14:43	12.401
195	6/29/2014 14:58	12.497
196	6/29/2014 15:13	12.787
197	6/29/2014 15:28	12.883
198	6/29/2014 15:43	12.98
199	6/29/2014 15:58	13.173
200	6/29/2014 16:13	13.269
201	6/29/2014 16:28	13.269
202	6/29/2014 16:43	13.461
203	6/29/2014 16:58	13.365
204	6/29/2014 17:13	13.173
205	6/29/2014 17:28	13.173
206	6/29/2014 17:43	12.98
207	6/29/2014 17:58	12.69
208	6/29/2014 18:13	12.787
209	6/29/2014 18:28	12.787
210	6/29/2014 18:43	12.787
211	6/29/2014 18:58	12.98
212	6/29/2014 19:13	13.076
213	6/29/2014 19:28	12.98
214	6/29/2014 19:43	12.787
215	6/29/2014 19:58	12.69
216	6/29/2014 20:13	12.594
217	6/29/2014 20:28	12.594
218	6/29/2014 20:43	12.98
219	6/29/2014 20:58	12.883
220	6/29/2014 21:13	12.98
221	6/29/2014 21:28	12.787
222	6/29/2014 21:43	12.594
223	6/29/2014 21:58	12.69
224	6/29/2014 22:13	12.883
225	6/29/2014 22:28	12.883
226	6/29/2014 22:43	12.883
227	6/29/2014 22:58	12.787
228	6/29/2014 23:13	12.787
229	6/29/2014 23:28	12.787
230	6/29/2014 23:43	12.69
231	6/29/2014 23:58	12.69
232	6/30/2014 0:13	12.69
233	6/30/2014 0:28	12.69
234	6/30/2014 0:43	12.69
235	6/30/2014 0:58	12.69
236	6/30/2014 1:13	12.69
237	6/30/2014 1:28	12.69
238	6/30/2014 1:43	12.787
239	6/30/2014 1:58	12.69
240	6/30/2014 2:13	12.69
241	6/30/2014 2:28	12.69
242	6/30/2014 2:43	12.594
243	6/30/2014 2:58	12.594
244	6/30/2014 3:13	12.594
245	6/30/2014 3:28	12.497
246	6/30/2014 3:43	12.497
247	6/30/2014 3:58	12.497
248	6/30/2014 4:13	12.594
249	6/30/2014 4:28	12.594
250	6/30/2014 4:43	12.594
251	6/30/2014 4:58	12.594
252	6/30/2014 5:13	12.594
253	6/30/2014 5:28	12.594
254	6/30/2014 5:43	12.497
255	6/30/2014 5:58	12.497
256	6/30/2014 6:13	12.497
257	6/30/2014 6:28	12.401
258	6/30/2014 6:43	12.401
259	6/30/2014 6:58	12.304
260	6/30/2014 7:13	12.304
261	6/30/2014 7:28	12.401
262	6/30/2014 7:43	12.304
263	6/30/2014 7:58	12.207
264	6/30/2014 8:13	12.11
265	6/30/2014 8:28	12.013
266	6/30/2014 8:43	12.013
267	6/30/2014 8:58	12.013
268	6/30/2014 9:13	12.11
269	6/30/2014 9:28	12.304
270	6/30/2014 9:43	12.401
271	6/30/2014 9:58	12.401
272	6/30/2014 10:13	12.401
273	6/30/2014 10:28	12.401
274	6/30/2014 10:43	12.401
275	6/30/2014 10:58	12.497
276	6/30/2014 11:13	12.69
277	6/30/2014 11:28	12.594
278	6/30/2014 11:43	12.304
279	6/30/2014 11:58	12.304
280	6/30/2014 12:13	12.304
281	6/30/2014 12:28	12.401
282	6/30/2014 12:43	12.401
283	6/30/2014 12:58	12.497
284	6/30/2014 13:13	12.594
285	6/30/2014 13:28	12.594
286	6/30/2014 13:43	12.69
287	6/30/2014 13:58	12.787
288	6/30/2014 14:13	12.98
289	6/30/2014 14:28	13.076
290	6/30/2014 14:43	13.461
291	6/30/2014 14:58	13.654
292	6/30/2014 15:13	13.558
293	6/30/2014 15:28	13.75
294	6/30/2014 15:43	14.134
295	6/30/2014 15:58	13.942
296	6/30/2014 16:13	14.038
297	6/30/2014 16:28	14.038
298	6/30/2014 16:43	13.942
299	6/30/2014 16:58	14.038
300	6/30/2014 17:13	14.038
301	6/30/2014 17:28	14.134
302	6/30/2014 17:43	13.942
303	6/30/2014 17:58	13.942
304	6/30/2014 18:13	14.038
305	6/30/2014 18:28	14.038
306	6/30/2014 18:43	14.134
307	6/30/2014 18:58	14.134
308	6/30/2014 19:13	14.325
309	6/30/2014 19:28	14.709
310	6/30/2014 19:43	14.613
311	6/30/2014 19:58	14.421
312	6/30/2014 20:13	14.421
313	6/30/2014 20:28	14.517
314	6/30/2014 20:43	14.23
315	6/30/2014 20:58	14.325
316	6/30/2014 21:13	14.23
317	6/30/2014 21:28	14.134
318	6/30/2014 21:43	14.134
319	6/30/2014 21:58	14.134
320	6/30/2014 22:13	14.038
321	6/30/2014 22:28	14.038
322	6/30/2014 22:43	13.942
323	6/30/2014 22:58	13.75
324	6/30/2014 23:13	13.365
325	6/30/2014 23:28	13.365
326	6/30/2014 23:43	13.558
327	6/30/2014 23:58	13.461
328	7/1/2014 0:13	13.461
329	7/1/2014 0:28	13.75
330	7/1/2014 0:43	13.75
331	7/1/2014 0:58	13.75
332	7/1/2014 1:13	13.75
333	7/1/2014 1:28	13.75
334	7/1/2014 1:43	13.75
335	7/1/2014 1:58	13.75
336	7/1/2014 2:13	13.75
337	7/1/2014 2:28	13.654
338	7/1/2014 2:43	13.558
339	7/1/2014 2:58	13.461
340	7/1/2014 3:13	13.365
341	7/1/2014 3:28	13.269
342	7/1/2014 3:43	13.269
343	7/1/2014 3:58	13.076
344	7/1/2014 4:13	12.98
345	7/1/2014 4:28	12.883
346	7/1/2014 4:43	12.787
347	7/1/2014 4:58	12.69
348	7/1/2014 5:13	12.69
349	7/1/2014 5:28	12.69
350	7/1/2014 5:43	12.69
351	7/1/2014 5:58	12.69
352	7/1/2014 6:13	12.69
353	7/1/2014 6:28	12.69
354	7/1/2014 6:43	12.594
355	7/1/2014 6:58	12.883
356	7/1/2014 7:13	12.883
357	7/1/2014 7:28	12.787
358	7/1/2014 7:43	13.173
359	7/1/2014 7:58	13.461
360	7/1/2014 8:13	13.558
361	7/1/2014 8:28	13.558
362	7/1/2014 8:43	13.75
363	7/1/2014 8:58	13.75
364	7/1/2014 9:13	13.654
365	7/1/2014 9:28	13.558
366	7/1/2014 9:43	13.654
367	7/1/2014 9:58	13.654
368	7/1/2014 10:13	13.75
369	7/1/2014 10:28	13.75
370	7/1/2014 10:43	13.75
371	7/1/2014 10:58	13.75
372	7/1/2014 11:13	13.75
373	7/1/2014 11:28	13.75
374	7/1/2014 11:43	13.75
375	7/1/2014 11:58	13.75
376	7/1/2014 12:13	13.846
377	7/1/2014 12:28	13.846
378	7/1/2014 12:43	13.942
379	7/1/2014 12:58	13.942
380	7/1/2014 13:13	13.942
381	7/1/2014 13:28	13.846
382	7/1/2014 13:43	13.942
383	7/1/2014 13:58	13.942
384	7/1/2014 14:13	13.942
385	7/1/2014 14:28	13.75
386	7/1/2014 14:43	13.654
387	7/1/2014 14:58	13.558
388	7/1/2014 15:13	13.558
389	7/1/2014 15:28	13.461
390	7/1/2014 15:43	13.558
391	7/1/2014 15:58	13.461
392	7/1/2014 16:13	13.846
393	7/1/2014 16:28	14.421
394	7/1/2014 16:43	15.091
395	7/1/2014 16:58	15.569
396	7/1/2014 17:13	15.664
397	7/1/2014 17:28	16.141
398	7/1/2014 17:43	15.855
399	7/1/2014 17:58	15.855
400	7/1/2014 18:13	15.951
401	7/1/2014 18:28	16.046
402	7/1/2014 18:43	16.046
403	7/1/2014 18:58	16.141
404	7/1/2014 19:13	16.141
405	7/1/2014 19:28	16.141
406	7/1/2014 19:43	16.141
407	7/1/2014 19:58	16.046
408	7/1/2014 20:13	16.046
409	7/1/2014 20:28	15.951
410	7/1/2014 20:43	15.855
411	7/1/2014 20:58	15.855
412	7/1/2014 21:13	15.569
413	7/1/2014 21:28	15.378
414	7/1/2014 21:43	14.996
415	7/1/2014 21:58	14.9
416	7/1/2014 22:13	14.996
417	7/1/2014 22:28	14.996
418	7/1/2014 22:43	14.996
419	7/1/2014 22:58	14.996
420	7/1/2014 23:13	15.091
421	7/1/2014 23:28	14.996
422	7/1/2014 23:43	14.996
423	7/1/2014 23:58	14.9
424	7/2/2014 0:13	14.709
425	7/2/2014 0:28	14.613
426	7/2/2014 0:43	14.613
427	7/2/2014 0:58	14.517
428	7/2/2014 1:13	14.421
429	7/2/2014 1:28	14.421
430	7/2/2014 1:43	14.421
431	7/2/2014 1:58	14.421
432	7/2/2014 2:13	14.421
433	7/2/2014 2:28	14.421
434	7/2/2014 2:43	14.421
435	7/2/2014 2:58	14.421
436	7/2/2014 3:13	14.421
437	7/2/2014 3:28	14.325
438	7/2/2014 3:43	14.23
439	7/2/2014 3:58	14.134
440	7/2/2014 4:13	14.038
441	7/2/2014 4:28	13.942
442	7/2/2014 4:43	13.942
443	7/2/2014 4:58	13.942
444	7/2/2014 5:13	13.942
445	7/2/2014 5:28	13.942
446	7/2/2014 5:43	14.23
447	7/2/2014 5:58	14.996
448	7/2/2014 6:13	14.996
449	7/2/2014 6:28	14.996
450	7/2/2014 6:43	15.282
451	7/2/2014 6:58	15.378
452	7/2/2014 7:13	15.282
453	7/2/2014 7:28	15.378
454	7/2/2014 7:43	15.378
455	7/2/2014 7:58	14.996
456	7/2/2014 8:13	14.517
457	7/2/2014 8:28	14.613
458	7/2/2014 8:43	14.804
459	7/2/2014 8:58	14.613
460	7/2/2014 9:13	14.709
461	7/2/2014 9:28	14.709
462	7/2/2014 9:43	14.709
463	7/2/2014 9:58	14.709
464	7/2/2014 10:13	14.613
465	7/2/2014 10:28	14.517
466	7/2/2014 10:43	14.325
467	7/2/2014 10:58	14.325
468	7/2/2014 11:13	14.134
469	7/2/2014 11:28	14.038
470	7/2/2014 11:43	14.038
471	7/2/2014 11:58	14.038
472	7/2/2014 12:13	14.038
473	7/2/2014 12:28	14.038
474	7/2/2014 12:43	13.846
475	7/2/2014 12:58	13.75
476	7/2/2014 13:13	13.558
477	7/2/2014 13:28	13.558
478	7/2/2014 13:43	13.461
479	7/2/2014 13:58	13.461
480	7/2/2014 14:13	13.461
481	7/2/2014 14:28	13.461
482	7/2/2014 14:43	13.461
483	7/2/2014 14:58	13.365
484	7/2/2014 15:13	13.461
485	7/2/2014 15:28	13.365
486	7/2/2014 15:43	13.365
487	7/2/2014 15:58	13.461
488	7/2/2014 16:13	13.461
489	7/2/2014 16:28	13.461
490	7/2/2014 16:43	13.365
491	7/2/2014 16:58	13.173
492	7/2/2014 17:13	13.076
493	7/2/2014 17:28	12.98
494	7/2/2014 17:43	12.883
495	7/2/2014 17:58	12.787
496	7/2/2014 18:13	12.69
497	7/2/2014 18:28	12.497
498	7/2/2014 18:43	12.304
499	7/2/2014 18:58	12.207
500	7/2/2014 19:13	12.207
501	7/2/2014 19:28	12.11
502	7/2/2014 19:43	12.013
503	7/2/2014 19:58	12.787
504	7/2/2014 20:13	12.98
505	7/2/2014 20:28	12.98
506	7/2/2014 20:43	12.98
507	7/2/2014 20:58	12.883
508	7/2/2014 21:13	12.883
509	7/2/2014 21:28	12.98
510	7/2/2014 21:43	12.883
511	7/2/2014 21:58	12.69
512	7/2/2014 22:13	12.497
513	7/2/2014 22:28	12.401
514	7/2/2014 22:43	12.401
515	7/2/2014 22:58	12.401
516	7/2/2014 23:13	12.401
517	7/2/2014 23:28	12.401
518	7/2/2014 23:43	12.304
519	7/2/2014 23:58	12.304
520	7/3/2014 0:13	12.304
521	7/3/2014 0:28	12.304
522	7/3/2014 0:43	12.207
523	7/3/2014 0:58	12.207
524	7/3/2014 1:13	12.207
525	7/3/2014 1:28	12.304
526	7/3/2014 1:43	12.304
527	7/3/2014 1:58	12.207
528	7/3/2014 2:13	12.207
529	7/3/2014 2:28	12.304
530	7/3/2014 2:43	12.304
531	7/3/2014 2:58	12.304
532	7/3/2014 3:13	12.304
533	7/3/2014 3:28	12.304
534	7/3/2014 3:43	12.207
535	7/3/2014 3:58	12.207
536	7/3/2014 4:13	12.207
537	7/3/2014 4:28	12.207
538	7/3/2014 4:43	12.207
539	7/3/2014 4:58	12.207
540	7/3/2014 5:13	12.207
541	7/3/2014 5:28	12.207
542	7/3/2014 5:43	12.207
543	7/3/2014 5:58	12.207
544	7/3/2014 6:13	12.11
545	7/3/2014 6:28	12.11
546	7/3/2014 6:43	12.11
547	7/3/2014 6:58	12.11
548	7/3/2014 7:13	12.11
549	7/3/2014 7:28	12.11
550	7/3/2014 7:43	12.11
551	7/3/2014 7:58	12.207
552	7/3/2014 8:13	12.207
553	7/3/2014 8:28	12.207
554	7/3/2014 8:43	12.11
555	7/3/2014 8:58	12.11
556	7/3/2014 9:13	12.013
557	7/3/2014 9:28	11.916
558	7/3/2014 9:43	11.916
559	7/3/2014 9:58	11.916
560	7/3/2014 10:13	11.916
561	7/3/2014 10:28	11.916
562	7/3/2014 10:43	11.916
563	7/3/2014 10:58	11.916
564	7/3/2014 11:13	12.11
565	7/3/2014 11:28	12.11
566	7/3/2014 11:43	12.013
567	7/3/2014 11:58	12.11
568	7/3/2014 12:13	12.207
569	7/3/2014 12:28	12.11
570	7/3/2014 12:43	11.916
571	7/3/2014 12:58	11.916
572	7/3/2014 13:13	12.013
573	7/3/2014 13:28	12.013
574	7/3/2014 13:43	12.013
575	7/3/2014 13:58	12.013
576	7/3/2014 14:13	12.013
577	7/3/2014 14:28	11.916
578	7/3/2014 14:43	11.916
579	7/3/2014 14:58	12.013
580	7/3/2014 15:13	12.11
581	7/3/2014 15:28	12.11
582	7/3/2014 15:43	12.013
583	7/3/2014 15:58	12.013
584	7/3/2014 16:13	12.207
585	7/3/2014 16:28	12.11
586	7/3/2014 16:43	11.819
587	7/3/2014 16:58	11.722
588	7/3/2014 17:13	11.819
589	7/3/2014 17:28	12.013
590	7/3/2014 17:43	12.013
591	7/3/2014 17:58	12.11
592	7/3/2014 18:13	12.013
593	7/3/2014 18:28	12.11
594	7/3/2014 18:43	12.304
595	7/3/2014 18:58	12.304
596	7/3/2014 19:13	12.304
597	7/3/2014 19:28	12.207
598	7/3/2014 19:43	12.11
599	7/3/2014 19:58	12.11
600	7/3/2014 20:13	12.11
601	7/3/2014 20:28	12.11
602	7/3/2014 20:43	12.11
603	7/3/2014 20:58	12.11
604	7/3/2014 21:13	12.207
605	7/3/2014 21:28	12.207
606	7/3/2014 21:43	12.304
607	7/3/2014 21:58	12.207
608	7/3/2014 22:13	12.207
609	7/3/2014 22:28	12.401
610	7/3/2014 22:43	12.497
611	7/3/2014 22:58	12.497
612	7/3/2014 23:13	12.69
613	7/3/2014 23:28	12.69
614	7/3/2014 23:43	12.69
615	7/3/2014 23:58	12.594
616	7/4/2014 0:13	12.594
617	7/4/2014 0:28	12.69
618	7/4/2014 0:43	12.69
619	7/4/2014 0:58	12.69
620	7/4/2014 1:13	12.594
621	7/4/2014 1:28	12.594
622	7/4/2014 1:43	12.594
623	7/4/2014 1:58	12.594
624	7/4/2014 2:13	12.594
625	7/4/2014 2:28	12.594
626	7/4/2014 2:43	12.594
627	7/4/2014 2:58	12.594
628	7/4/2014 3:13	12.594
629	7/4/2014 3:28	12.594
630	7/4/2014 3:43	12.594
631	7/4/2014 3:58	12.594
632	7/4/2014 4:13	12.594
633	7/4/2014 4:28	12.594
634	7/4/2014 4:43	12.594
635	7/4/2014 4:58	12.594
636	7/4/2014 5:13	12.594
637	7/4/2014 5:28	12.594
638	7/4/2014 5:43	12.594
639	7/4/2014 5:58	12.69
640	7/4/2014 6:13	12.69
641	7/4/2014 6:28	12.69
642	7/4/2014 6:43	12.69
643	7/4/2014 6:58	12.69
644	7/4/2014 7:13	12.69
645	7/4/2014 7:28	12.69
646	7/4/2014 7:43	12.69
647	7/4/2014 7:58	12.69
648	7/4/2014 8:13	12.69
649	7/4/2014 8:28	12.69
650	7/4/2014 8:43	12.69
651	7/4/2014 8:58	12.69
652	7/4/2014 9:13	12.787
653	7/4/2014 9:28	13.076
654	7/4/2014 9:43	13.076
655	7/4/2014 9:58	13.076
656	7/4/2014 10:13	12.883
657	7/4/2014 10:28	12.98
658	7/4/2014 10:43	12.98
659	7/4/2014 10:58	12.98
660	7/4/2014 11:13	12.883
661	7/4/2014 11:28	12.98
662	7/4/2014 11:43	12.883
663	7/4/2014 11:58	12.98
664	7/4/2014 12:13	13.076
665	7/4/2014 12:28	13.076
666	7/4/2014 12:43	13.076
667	7/4/2014 12:58	13.076
668	7/4/2014 13:13	12.98
669	7/4/2014 13:28	12.98
670	7/4/2014 13:43	13.076
671	7/4/2014 13:58	13.076
672	7/4/2014 14:13	13.173
673	7/4/2014 14:28	13.173
674	7/4/2014 14:43	13.076
675	7/4/2014 14:58	13.076
676	7/4/2014 15:13	12.98
677	7/4/2014 15:28	12.883
678	7/4/2014 15:43	12.787
679	7/4/2014 15:58	12.787
680	7/4/2014 16:13	12.787
681	7/4/2014 16:28	12.69
682	7/4/2014 16:43	12.69
683	7/4/2014 16:58	12.69
684	7/4/2014 17:13	12.497
685	7/4/2014 17:28	12.401
686	7/4/2014 17:43	12.497
687	7/4/2014 17:58	12.497
688	7/4/2014 18:13	12.69
689	7/4/2014 18:28	12.69
690	7/4/2014 18:43	12.594
691	7/4/2014 18:58	12.594
692	7/4/2014 19:13	12.594
693	7/4/2014 19:28	12.69
694	7/4/2014 19:43	12.69
695	7/4/2014 19:58	12.69
696	7/4/2014 20:13	12.787
697	7/4/2014 20:28	12.883
698	7/4/2014 20:43	12.98
699	7/4/2014 20:58	13.173
700	7/4/2014 21:13	13.365
701	7/4/2014 21:28	13.558
702	7/4/2014 21:43	13.654
703	7/4/2014 21:58	13.846
704	7/4/2014 22:13	13.942
705	7/4/2014 22:28	14.038
706	7/4/2014 22:43	13.846
707	7/4/2014 22:58	13.942
708	7/4/2014 23:13	13.942
709	7/4/2014 23:28	13.942
710	7/4/2014 23:43	13.846
711	7/4/2014 23:58	13.942
712	7/5/2014 0:13	13.846
713	7/5/2014 0:28	13.846
714	7/5/2014 0:43	13.75
715	7/5/2014 0:58	13.75
716	7/5/2014 1:13	13.75
717	7/5/2014 1:28	13.846
718	7/5/2014 1:43	13.942
719	7/5/2014 1:58	13.942
720	7/5/2014 2:13	13.846
721	7/5/2014 2:28	13.846
722	7/5/2014 2:43	13.846
723	7/5/2014 2:58	13.846
724	7/5/2014 3:13	13.846
725	7/5/2014 3:28	13.846
726	7/5/2014 3:43	13.846
727	7/5/2014 3:58	13.846
728	7/5/2014 4:13	13.846
729	7/5/2014 4:28	13.75
730	7/5/2014 4:43	13.75
731	7/5/2014 4:58	13.75
732	7/5/2014 5:13	13.75
733	7/5/2014 5:28	13.75
734	7/5/2014 5:43	13.654
735	7/5/2014 5:58	13.654
736	7/5/2014 6:13	13.558
737	7/5/2014 6:28	13.558
738	7/5/2014 6:43	13.558
739	7/5/2014 6:58	13.558
740	7/5/2014 7:13	13.558
741	7/5/2014 7:28	13.558
742	7/5/2014 7:43	13.461
743	7/5/2014 7:58	13.461
744	7/5/2014 8:13	13.461
745	7/5/2014 8:28	13.461
746	7/5/2014 8:43	13.365
747	7/5/2014 8:58	13.269
748	7/5/2014 9:13	13.269
749	7/5/2014 9:28	13.269
750	7/5/2014 9:43	13.269
751	7/5/2014 9:58	13.173
752	7/5/2014 10:13	13.173
753	7/5/2014 10:28	13.173
754	7/5/2014 10:43	13.173
755	7/5/2014 10:58	13.269
756	7/5/2014 11:13	13.461
757	7/5/2014 11:28	13.558
758	7/5/2014 11:43	13.558
759	7/5/2014 11:58	13.558
760	7/5/2014 12:13	13.558
761	7/5/2014 12:28	13.558
762	7/5/2014 12:43	13.654
763	7/5/2014 12:58	13.942
764	7/5/2014 13:13	14.038
765	7/5/2014 13:28	14.134
766	7/5/2014 13:43	14.038
767	7/5/2014 13:58	14.23
768	7/5/2014 14:13	14.23
769	7/5/2014 14:28	14.23
770	7/5/2014 14:43	14.325
771	7/5/2014 14:58	14.421
772	7/5/2014 15:13	14.517
773	7/5/2014 15:28	14.613
774	7/5/2014 15:43	14.613
775	7/5/2014 15:58	14.517
776	7/5/2014 16:13	14.517
777	7/5/2014 16:28	14.613
778	7/5/2014 16:43	14.517
779	7/5/2014 16:58	14.325
780	7/5/2014 17:13	14.23
781	7/5/2014 17:28	14.23
782	7/5/2014 17:43	14.325
783	7/5/2014 17:58	14.325
784	7/5/2014 18:13	14.325
785	7/5/2014 18:28	14.421
786	7/5/2014 18:43	14.421
787	7/5/2014 18:58	14.517
788	7/5/2014 19:13	14.517
789	7/5/2014 19:28	14.613
790	7/5/2014 19:43	14.709
791	7/5/2014 19:58	14.9
792	7/5/2014 20:13	14.996
793	7/5/2014 20:28	15.187
794	7/5/2014 20:43	15.091
795	7/5/2014 20:58	14.996
796	7/5/2014 21:13	14.9
797	7/5/2014 21:28	14.9
798	7/5/2014 21:43	14.9
799	7/5/2014 21:58	14.9
800	7/5/2014 22:13	14.9
801	7/5/2014 22:28	14.9
802	7/5/2014 22:43	14.9
803	7/5/2014 22:58	14.709
804	7/5/2014 23:13	14.517
805	7/5/2014 23:28	14.421
806	7/5/2014 23:43	14.421
807	7/5/2014 23:58	14.325
808	7/6/2014 0:13	14.325
809	7/6/2014 0:28	14.325
810	7/6/2014 0:43	14.421
811	7/6/2014 0:58	14.613
812	7/6/2014 1:13	14.517
813	7/6/2014 1:28	14.134
814	7/6/2014 1:43	14.134
815	7/6/2014 1:58	14.134
816	7/6/2014 2:13	14.23
817	7/6/2014 2:28	14.325
818	7/6/2014 2:43	14.325
819	7/6/2014 2:58	14.23
820	7/6/2014 3:13	14.134
821	7/6/2014 3:28	14.038
822	7/6/2014 3:43	13.942
823	7/6/2014 3:58	13.942
824	7/6/2014 4:13	13.846
825	7/6/2014 4:28	13.846
826	7/6/2014 4:43	13.942
827	7/6/2014 4:58	13.942
828	7/6/2014 5:13	13.942
829	7/6/2014 5:28	13.942
830	7/6/2014 5:43	13.942
831	7/6/2014 5:58	13.942
832	7/6/2014 6:13	13.942
833	7/6/2014 6:28	13.846
834	7/6/2014 6:43	13.75
835	7/6/2014 6:58	13.75
836	7/6/2014 7:13	13.654
837	7/6/2014 7:28	13.654
838	7/6/2014 7:43	13.654
839	7/6/2014 7:58	13.654
840	7/6/2014 8:13	13.654
841	7/6/2014 8:28	13.654
842	7/6/2014 8:43	13.558
843	7/6/2014 8:58	13.558
844	7/6/2014 9:13	13.558
845	7/6/2014 9:28	13.558
846	7/6/2014 9:43	13.654
847	7/6/2014 9:58	14.134
848	7/6/2014 10:13	14.517
849	7/6/2014 10:28	14.613
850	7/6/2014 10:43	14.613
851	7/6/2014 10:58	14.421
852	7/6/2014 11:13	14.23
853	7/6/2014 11:28	14.038
854	7/6/2014 11:43	13.942
855	7/6/2014 11:58	14.038
856	7/6/2014 12:13	14.038
857	7/6/2014 12:28	14.038
858	7/6/2014 12:43	13.942
859	7/6/2014 12:58	14.038
860	7/6/2014 13:13	14.23
861	7/6/2014 13:28	14.421
862	7/6/2014 13:43	14.325
863	7/6/2014 13:58	14.23
864	7/6/2014 14:13	14.23
865	7/6/2014 14:28	14.421
866	7/6/2014 14:43	14.421
867	7/6/2014 14:58	14.421
868	7/6/2014 15:13	14.613
869	7/6/2014 15:28	14.804
870	7/6/2014 15:43	14.709
871	7/6/2014 15:58	14.804
872	7/6/2014 16:13	14.9
873	7/6/2014 16:28	14.9
874	7/6/2014 16:43	14.9
875	7/6/2014 16:58	14.9
876	7/6/2014 17:13	14.804
877	7/6/2014 17:28	14.804
878	7/6/2014 17:43	14.804
879	7/6/2014 17:58	14.9
880	7/6/2014 18:13	14.996
881	7/6/2014 18:28	15.187
882	7/6/2014 18:43	15.187
883	7/6/2014 18:58	15.091
884	7/6/2014 19:13	14.996
885	7/6/2014 19:28	15.091
886	7/6/2014 19:43	15.569
887	7/6/2014 19:58	15.76
888	7/6/2014 20:13	15.855
889	7/6/2014 20:28	16.332
890	7/6/2014 20:43	16.237
891	7/6/2014 20:58	16.237
892	7/6/2014 21:13	16.141
893	7/6/2014 21:28	16.046
894	7/6/2014 21:43	16.046
895	7/6/2014 21:58	15.951
896	7/6/2014 22:13	15.951
897	7/6/2014 22:28	15.951
898	7/6/2014 22:43	15.855
899	7/6/2014 22:58	15.855
900	7/6/2014 23:13	15.855
901	7/6/2014 23:28	15.951
902	7/6/2014 23:43	16.046
903	7/6/2014 23:58	16.141
904	7/7/2014 0:13	16.141